Probability
0 0 0 0 0 0 0 0 0 0 0 0 0 0 0 0 0 0 0 0 0 0 0 0 0 0 0 0 0 0 0 0 0 0 0 0 0 0 0 0 0 0 0
0 0 0 0 0 0 0 0 0 0 0 0 0 0 0 0 0 0 0 0 0 0 0 0 0 0 0 0 0 0 0 0 0 0 0 0 0 0 0 0 0 0 0
0 0 0 0 0 0 0 0 0 0 0 0 0 0 0 0 0 0 0 0 0 0 0 0 0 0 0 0 0 0 0 0 0 0 0 0 0 0 0 0 0 0 0
0 0 0 0 0 0 0 0 0 0 0 0 0 0 0 0 0 0 0 0 0 0 0 0 0 0 0 0 0 0 0 0 0 0 0 0 0 0 0 0 0 0 0
0 0 0 0 0 0 0 0 0 0 0 0 0 0 0 0 0 0 0 0 0 0 0 0 0 0 0 0 0 0 0 0 0 0 0 0 0 0 0 0 0 0 0
0 0 0 0 0 0 0 0 0 0 0 0 0 0 0 0 0 0 0 0 0 0 0 0 0 0 0 0 0 0 0 0 0 0 0 0 0 0 0 0 0 0 0
0 0 0 0 0 0 0 0 0 0 0 0 0 0 0 0 0 0 0 0 0 0 0 0 0 0 0 0 0 0 0 0 0 0 0 0 0 0 0 0 0 0 0
0 0 0 0 0 0 0 0 0 0 0 0 0 0 0 0 0 0 0 0 0 0 0 0 0 0 0 0 0 0 0 0 0 0 0 0 0 0 0 0 0 0 0
0 0 0 0 0 0 0 0 0 0 0 0 0 0 0 0 0 0 0 0 0 0 0 0 0 0 0 0 0 0 0 0 0 0 0 0 0 0 0 0 0 0 0
0 0 0 0 0 0 0 0 0 0 0 0 0 0 0 0 0 0 0 0 0 0 0 0 0 0 0 0 0 0 0 0 0 0 0 0 0 0 0 0 0 0 0
0 0 0 0 0 0 0 0 0 0 0 0 0 0 0 0 0 0 0 0 0 0 0 0 0 0 0 0 0 0 0 0 0 0 0 0 0 0 0 0 0 0 0
0 0 0 0 0 0 0 0 0 0 0 0 0 0 0 0 0 0 0 0 0 0 0 0 0 0 0 0 0 0 0 0 0 0 0 0 0 0 0 0 0 0 0
0 0 0 0 0 0 0 0 0 0 0 0 0 0 0 0 0 0 0 0 0 0 0 0 0 0 0 0 0 0 0 0 0 0 0 0 0 0 0 0 0 0 0
0 0 0 0 0 0 0 0 0 0 0 0 0 0 0 0 0 0 0 0 0 0 0 0 0 0 0 0 0 0 0 0 0 0 0 0 0 0 0 0 0 0 0
0 0 0 0 0 0 0 0 0 0 0 0 0 0 0 0 0 0 0 0 0 0 0 0 0 0 0 0 0 0 0 0 0 0 0 0 0 0 0 0 0 0 0
0 0 0 0 0 0 0 0 0 0 0 0 0 0 0 0 0 0 0 0 0 0 0 0 0 0 0 0 0 0 0 0 0 0 0 0 0 0 0 0 0 0 0
0 0 0 0 0 0 0 0 0 0 0 0 0 0 0 0 0 0 0 0 0 0 0 0 0 0 0 0 0 0 0 0 0 0 0 0 0 0 0 0 0 0 0
0 0 0 0 0 0 0 0 0 0 0 0 0 0 0 0 0 0 0 0 0 0 0 0 0 0 0 0 0 0 0 0 0 0 0 0 0 0 0 0 0 0 0
0 0 0 0 0 0 0 0 0 0 0 0 0 0 0 0 0 0 0 0 0 0 0 0 0 0 0 0 0 0 0 0 0 0 0 0 0 0 0 0 0 0 0
0 0 0 0 0 0 0 0 0 0 0 0 0 0 0 0 0 0 0 0 0 0 0 0 0 0 0 0 0 0 0 0 0 0 0 0 0 0 0 0 0 0 0
0 0 0 0 0 0 0 0 0 0 0 0 0 0 0 0 0 0 0 0 0 0 0 0 0 0 0 0 0 0 0 0 0 0 0 0 0 0 0 0 0 0 0
0 0 0 0 0 0 0 0 0 0 0 0 0 0 0 0 0 0 0 0 0 0 0 0 0 0 0 0 0 0 0 0 0 0 0 0 0 0 0 0 0 0 0
0 0 0 0 0 0 0 0 0 0 0 0 0 0 0 0 0 0 0 0 0 0 0 0 0 0 0 0 0 0 0 0 0 0 0 0 0 0 0 0 0 0 0
0 0 0 0 0 0 0 0 0 0 0 0 0 0 0 0 0 0 0 0 0 0 0 0 0 0 0 0 0 0 0 0 0 0 0 0 0 0 0 0 0 0 0
0 0 0 0 0 0 0 0 0 0 0 0 0 0 0 0 0 0 0 0 0 0 0 0 0 0 0 0 0 0 0 0 0 0 0 0 0 0 0 0 0 0 0
0 0 0 0 0 0 0 0 0 0 0 0 0 0 0 0 0 0 0 0 0 0 0 0 0 0 0 0 0 0 0 0 0 0 0 0 0 0 0 0 0 0 0
Wind_Speed
3 3 4 3 3 3 3 3 2 2 3 3 3 3 4 4 4 4 3 3 3 3 3 2 2 2 1 1 1 1 1 2 2 1 0 1 1 2 2 3 3 3 4
3 3 3 3 3 3 3 3 3 3 3 3 3 3 4 4 4 4 4 4 3 3 3 3 3 2 1 1 1 1 1 1 3 3 1 1 1 2 3 3 3 3 3
3 3 3 2 3 2 2 2 2 3 3 3 3 3 3 4 4 4 3 3 3 3 3 3 3 2 1 1 1 1 1 1 2 4 2 1 1 2 3 3 4 3 3
4 3 2 2 2 1 1 2 2 2 3 3 3 3 3 3 4 4 3 3 3 3 4 4 3 2 1 1 1 1 2 3 3 3 3 2 2 2 2 3 2 2 2
4 3 2 1 2 2 2 3 3 3 3 3 3 3 3 3 3 3 3 3 3 3 4 4 4 4 3 1 1 2 3 3 3 4 3 2 2 2 2 2 3 2 1
3 2 2 2 2 3 2 3 3 3 3 3 3 3 4 3 4 4 2 2 2 2 3 4 4 4 4 3 1 2 4 4 4 4 3 4 3 3 2 3 3 2 0
3 3 2 3 3 3 3 3 3 3 3 3 3 3 3 4 5 4 4 2 2 2 2 3 3 4 4 2 3 3 2 3 5 4 5 5 5 4 4 3 3 2 2
3 3 2 3 2 2 2 2 2 1 2 2 2 2 2 4 6 5 4 3 3 3 2 2 2 3 3 2 2 2 2 1 2 3 4 4 4 4 4 4 4 2 1
3 2 2 2 2 2 2 1 1 1 1 1 1 2 2 4 6 4 3 2 3 3 4 3 3 2 3 2 2 3 2 2 2 4 3 3 4 5 4 4 3 3 1
2 2 2 2 2 1 1 0 0 1 1 1 2 2 2 3 5 4 3 1 2 2 3 3 5 4 3 2 2 2 2 1 2 3 2 2 1 2 4 5 5 4 2
2 3 2 1 1 1 0 0 1 1 1 2 2 2 2 3 4 4 2 1 0 1 2 3 3 4 4 3 3 2 1 1 2 2 1 1 0 0 1 2 4 4 3
3 3 1 1 0 1 1 1 1 1 1 1 2 3 3 3 4 4 3 2 0 1 1 2 2 4 4 4 2 2 2 2 2 2 1 0 0 1 1 1 2 3 3
3 2 1 1 1 1 1 1 1 1 1 0 0 1 2 3 4 6 5 4 3 1 1 2 3 4 4 3 3 2 2 2 2 1 1 1 1 1 1 0 1 0 1
2 1 1 1 2 2 2 1 1 1 1 0 1 0 1 2 3 3 3 3 4 3 2 3 4 5 3 3 2 2 1 1 1 1 1 1 0 0 0 1 1 0 1
2 1 1 1 1 1 1 1 0 1 2 3 2 2 2 1 3 3 1 1 2 2 2 2 3 3 3 3 2 2 2 1 0 0 1 0 0 0 1 1 1 1 1
2 1 1 1 1 0 1 1 2 1 2 2 3 3 2 3 3 2 2 3 3 3 2 2 2 2 2 2 2 2 1 1 1 0 1 1 1 1 1 1 1 1 1
2 2 1 1 1 1 1 1 1 3 3 3 3 3 3 3 3 3 3 4 4 3 2 1 2 2 2 2 1 1 2 2 1 1 1 1 1 1 1 1 1 1 1
2 2 2 2 2 2 2 2 2 2 2 3 4 5 5 5 4 4 4 3 3 2 1 2 2 3 2 2 2 2 2 2 1 1 1 1 1 1 1 1 1 1 2
2 2 2 2 2 2 2 3 3 3 3 3 2 3 5 5 5 4 2 0 2 2 2 2 3 2 2 2 2 2 2 2 2 1 1 2 1 1 1 2 2 2 2
2 4 3 2 2 2 2 3 3 3 3 3 3 4 2 1 2 2 2 2 3 3 3 3 3 3 3 3 2 2 2 2 2 2 2 2 2 2 2 3 2 2 2
3 3 4 3 3 3 3 3 3 3 3 4 4 5 6 4 4 4 3 3 4 4 4 4 3 3 3 2 2 2 3 3 3 2 2 2 2 2 2 2 3 3 2
3 3 3 3 3 3 3 3 3 3 4 4 4 4 7 4 4 4 4 5 5 5 5 4 4 3 3 3 3 3 2 2 2 2 2 2 2 2 2 2 2 2 2
3 3 3 3 3 4 4 3 3 4 4 4 5 4 4 4 5 5 6 5 5 5 4 4 4 4 4 4 3 4 4 4 4 4 3 3 2 3 3 3 3 3 3
3 4 4 4 4 4 4 4 4 4 5 5 5 5 5 5 5 6 6 5 5 5 5 4 5 7 8 5 4 4 4 5 4 3 4 4 3 3 3 3 4 4 4
4 4 4 4 4 4 4 4 4 5 5 5 5 5 5 5 6 6 6 6 6 6 7 6 5 6 8 9 7 6 7 8 6 4 3 3 4 4 4 4 4 4 5
5 5 5 4 4 5 5 5 5 5 5 5 5 5 5 5 6 6 6 5 6 6 6 6 7 8 9 8 9 9 8 8 8 7 4 3 4 5 4 4 5 5 6
Wind_Direction
95 91 86 73 66 62 56 47 38 28 29 30 24 25 28 27 22 25 13 6 8 352 347 351 321 296 288 283 260 228 199 165 176 193 52 47 60 67 58 58 67 81 94
106 95 90 79 68 60 43 28 33 35 33 35 37 37 32 25 17 19 10 6 4 350 340 337 323 314 305 281 241 213 188 164 157 166 144 117 98 112 91 83 76 85 91
107 100 88 78 74 61 37 20 32 44 35 32 40 38 32 26 19 15 14 12 8 356 346 337 325 328 308 294 238 184 173 153 142 148 146 115 104 113 98 79 82 73 81
117 110 99 90 83 71 47 37 39 57 57 50 47 38 36 31 19 14 17 18 10 4 356 352 341 330 292 256 185 168 149 130 129 134 132 117 108 108 115 111 90 63 73
113 108 112 102 78 63 52 44 44 52 62 60 55 36 26 26 13 16 15 21 12 5 359 360 0 3 354 292 190 167 150 142 140 140 139 132 136 139 150 144 125 97 45
122 113 102 87 74 64 59 55 53 47 46 50 49 39 27 11 1 20 34 15 7 7 355 353 357 5 10 28 94 165 177 168 162 159 156 158 165 158 148 145 133 124 167
114 106 97 91 80 70 70 63 54 46 49 48 39 41 24 355 6 21 35 29 16 360 351 356 8 13 12 29 58 70 95 167 178 171 165 172 171 172 160 155 156 155 185
116 110 105 96 89 73 69 66 54 52 55 46 33 22 15 357 7 19 34 35 25 10 8 9 12 2 8 25 61 68 58 65 158 167 172 176 172 170 170 167 162 137 59
123 126 118 110 102 85 73 64 58 69 49 37 26 21 18 350 2 22 46 36 30 11 7 12 10 4 359 50 73 79 63 39 76 115 143 160 170 179 167 136 132 121 108
133 131 117 111 114 109 104 92 51 84 74 45 34 16 13 348 357 24 50 53 35 4 358 1 10 15 20 73 89 98 87 61 79 90 89 97 153 187 185 172 162 151 150
133 112 102 99 122 143 111 82 108 84 55 31 21 2 358 345 351 14 46 62 59 7 353 344 348 22 41 60 75 95 135 130 105 101 94 84 76 176 186 176 172 164 165
112 101 98 81 69 96 82 26 61 99 71 23 5 351 346 343 356 3 36 56 89 69 333 325 338 20 36 37 43 57 100 110 102 99 99 102 201 224 227 217 198 197 201
104 99 93 62 38 59 79 37 27 61 88 55 44 333 331 340 351 11 21 28 36 36 323 327 345 3 14 18 14 36 82 89 98 111 150 221 228 229 230 357 1 4 287
115 108 105 87 48 30 34 56 88 77 111 122 150 219 314 338 343 346 349 356 11 15 360 346 348 355 8 7 4 17 33 116 148 169 217 247 305 358 159 161 159 110 2
122 118 111 108 100 60 40 36 152 228 206 187 201 193 183 264 286 298 298 335 344 340 351 5 5 1 360 351 347 343 348 11 78 148 148 130 47 284 257 203 166 155 177
134 136 145 156 164 137 100 359 342 271 280 242 220 203 224 226 245 286 314 329 341 353 39 23 348 334 320 309 319 322 321 308 280 217 157 169 200 231 258 257 192 187 217
165 185 192 196 200 203 200 202 292 318 307 292 276 250 235 242 264 296 328 340 346 14 35 336 311 300 293 288 270 254 266 261 245 226 220 225 223 228 228 250 247 229 254
183 209 213 214 213 219 227 232 230 236 273 290 285 263 260 262 273 295 327 358 349 360 315 298 294 291 284 272 260 250 264 283 270 244 238 235 220 211 223 244 247 240 252
198 217 227 233 232 231 239 242 238 237 240 253 274 281 264 268 283 288 296 263 271 286 288 287 280 280 280 273 266 259 255 253 252 243 247 244 231 209 233 248 252 261 253
220 232 230 234 251 256 255 250 246 239 236 239 244 247 244 223 270 276 246 240 253 263 266 268 273 271 268 268 265 261 259 257 257 244 244 243 236 219 233 245 244 245 247
216 242 244 244 244 244 245 245 241 231 228 232 242 242 211 205 230 243 245 239 238 246 251 254 257 261 258 252 249 250 244 246 248 240 239 238 226 224 232 234 241 243 247
207 230 238 245 253 254 252 246 238 235 235 239 248 255 228 219 231 241 247 249 243 239 239 240 248 250 245 234 227 221 221 233 242 236 236 239 236 235 238 240 245 246 246
210 229 246 258 257 261 264 258 246 243 243 242 239 238 228 226 234 240 244 248 249 245 239 230 236 251 251 242 229 215 211 222 226 212 212 228 233 232 229 234 242 246 249
219 231 241 252 254 251 254 259 255 251 249 243 238 236 233 231 237 242 244 246 245 246 242 234 232 237 240 241 236 228 228 229 221 215 208 212 223 232 232 235 242 244 248
228 235 239 245 251 251 253 257 258 257 254 246 240 239 238 235 237 242 243 243 242 245 247 241 237 236 241 242 238 233 231 232 229 223 216 213 224 230 233 237 243 250 251
233 240 242 244 244 244 243 248 253 253 252 249 245 244 242 238 238 241 242 243 244 246 250 246 239 238 240 243 242 239 236 237 238 234 224 222 228 237 237 242 249 252 258